FNF216 ENTC-EFRO

Flight info

Callsign FNF216
Flight time 0h 47m
Altitude 41000
Route MOKAX DCT RIXEM DCT TUVLU DCT OSLIT
Aircraft LJ35/M-SGHRWXY/SB1

Departure

Time 2026-04-28 18:34
Airport Tromsø Airport (ENTC)

Arrival

Time 2026-04-28 19:21
Airport Rovaniemi Airport (EFRO)
Time Latitude Longitude Altitude Speed Heading
2026-04-28 18:32 69.67635 18.91143 29 ft 13 kts 102°
2026-04-28 18:33 69.67622 18.91387 34 ft 12 kts 62°
2026-04-28 18:33 69.67652 18.91438 35 ft 1 kts 13°
2026-04-28 18:33 69.67685 18.91459 109 ft 31 kts 13°
2026-04-28 18:33 69.68388 18.91923 -183 ft 168 kts 14°
2026-04-28 18:34 69.69790 18.92906 750 ft 242 kts 14°
2026-04-28 18:34 69.71375 18.94078 1883 ft 225 kts 13°
2026-04-28 18:34 69.72954 18.95431 3359 ft 257 kts 16°
2026-04-28 18:34 69.74624 18.97222 5846 ft 246 kts 20°
2026-04-28 18:35 69.76068 18.99164 9103 ft 215 kts 23°
2026-04-28 18:35 69.77523 19.01988 10369 ft 282 kts 47°
2026-04-28 18:35 69.78234 19.07166 12644 ft 292 kts 82°
2026-04-28 18:35 69.77724 19.13169 14258 ft 323 kts 111°
2026-04-28 18:36 69.76783 19.18845 16602 ft 302 kts 114°
2026-04-28 18:36 69.75509 19.23496 18958 ft 299 kts 134°
2026-04-28 18:36 69.73678 19.26802 20082 ft 323 kts 158°
2026-04-28 18:36 69.71439 19.28079 21056 ft 341 kts 180°
2026-04-28 18:37 69.69102 19.27169 22400 ft 345 kts 195°
2026-04-28 18:37 69.66632 19.25503 22767 ft 382 kts 195°
2026-04-28 18:37 69.63954 19.25231 24075 ft 388 kts 171°
2026-04-28 18:37 69.61389 19.27743 25196 ft 390 kts 153°
2026-04-28 18:38 69.59001 19.30905 26349 ft 388 kts 153°
2026-04-28 18:38 69.56496 19.34165 27736 ft 383 kts 153°
2026-04-28 18:38 69.54089 19.37513 28796 ft 387 kts 150°
2026-04-28 18:38 69.51662 19.41159 29395 ft 403 kts 149°
2026-04-28 18:39 69.49103 19.44818 29957 ft 418 kts 153°
2026-04-28 18:39 69.46427 19.48185 30797 ft 421 kts 154°
2026-04-28 18:39 69.43771 19.51571 31879 ft 413 kts 154°
2026-04-28 18:39 69.41182 19.54941 32839 ft 412 kts 154°
2026-04-28 18:40 69.38469 19.58360 32731 ft 440 kts 155°
2026-04-28 18:40 69.35612 19.61825 33141 ft 448 kts 156°
2026-04-28 18:40 69.32757 19.65139 34248 ft 438 kts 156°
2026-04-28 18:40 69.29955 19.68352 35129 ft 433 kts 157°
2026-04-28 18:41 69.27147 19.71491 35642 ft 437 kts 158°
2026-04-28 18:41 69.24279 19.74611 35850 ft 449 kts 158°
2026-04-28 18:41 69.21330 19.77846 36030 ft 459 kts 158°
2026-04-28 18:41 69.18339 19.81183 36444 ft 462 kts 157°
2026-04-28 18:42 69.15369 19.84567 37114 ft 458 kts 157°
2026-04-28 18:42 69.12442 19.87983 37827 ft 454 kts 156°
2026-04-28 18:42 69.09534 19.91463 38322 ft 456 kts 156°
2026-04-28 18:42 69.06643 19.95002 38512 ft 463 kts 155°
2026-04-28 18:43 69.03675 19.98735 38577 ft 473 kts 154°
2026-04-28 18:43 69.00664 20.02637 38786 ft 479 kts 154°
2026-04-28 18:43 68.97673 20.06700 39212 ft 477 kts 153°
2026-04-28 18:43 68.94720 20.10808 39682 ft 473 kts 153°
2026-04-28 18:44 68.91783 20.14893 40102 ft 471 kts 153°
2026-04-28 18:44 68.85870 20.23131 40407 ft 482 kts 152°
2026-04-28 18:44 68.82869 20.27383 40462 ft 487 kts 152°
2026-04-28 18:45 68.79864 20.31729 40652 ft 487 kts 151°
2026-04-28 18:45 68.77012 20.36733 40751 ft 488 kts 139°
2026-04-28 18:45 68.74885 20.44000 40644 ft 484 kts 121°
2026-04-28 18:45 68.73014 20.51547 41264 ft 476 kts 124°
2026-04-28 18:46 68.70796 20.58430 41251 ft 484 kts 136°
2026-04-28 18:46 68.68348 20.64651 41898 ft 471 kts 135°
2026-04-28 18:46 68.63909 20.78223 41659 ft 485 kts 128°
2026-04-28 18:47 68.61746 20.85275 41843 ft 486 kts 128°
2026-04-28 18:47 68.59561 20.92364 41882 ft 487 kts 128°
2026-04-28 18:47 68.57365 20.99482 41763 ft 490 kts 128°
2026-04-28 18:47 68.55165 21.06645 41622 ft 493 kts 128°
2026-04-28 18:48 68.52926 21.13634 41421 ft 483 kts 133°
2026-04-28 18:48 68.50539 21.19894 41467 ft 472 kts 135°
2026-04-28 18:48 68.48170 21.25930 41594 ft 460 kts 136°
2026-04-28 18:48 68.45981 21.32166 41576 ft 452 kts 130°
2026-04-28 18:49 68.43222 21.40521 41549 ft 445 kts 130°
2026-04-28 18:49 68.39764 21.50899 41374 ft 440 kts 131°
2026-04-28 18:49 68.37683 21.56933 41393 ft 435 kts 132°
2026-04-28 18:50 68.33525 21.68528 41305 ft 430 kts 133°
2026-04-28 18:50 68.29262 21.79734 41132 ft 428 kts 135°
2026-04-28 18:51 68.27108 21.85287 40923 ft 430 kts 134°
2026-04-28 18:51 68.24994 21.90986 40802 ft 429 kts 133°
2026-04-28 18:51 68.20904 22.02605 40687 ft 425 kts 131°
2026-04-28 18:52 68.18834 22.08437 39844 ft 444 kts 133°
2026-04-28 18:52 68.16544 22.14392 38772 ft 468 kts 135°
2026-04-28 18:52 68.14115 22.20280 38385 ft 469 kts 137°
2026-04-28 18:52 68.11656 22.25930 38196 ft 460 kts 138°
2026-04-28 18:53 68.09222 22.31424 37555 ft 457 kts 139°
2026-04-28 18:53 68.06810 22.37005 36623 ft 460 kts 135°
2026-04-28 18:53 68.04433 22.42806 35749 ft 464 kts 135°
2026-04-28 18:53 68.02052 22.48576 35194 ft 459 kts 135°
2026-04-28 18:54 67.99701 22.54219 34925 ft 447 kts 136°
2026-04-28 18:54 67.97414 22.59681 34703 ft 437 kts 136°
2026-04-28 18:54 67.95173 22.65047 34283 ft 432 kts 134°
2026-04-28 18:54 67.92973 22.70502 33574 ft 433 kts 134°
2026-04-28 18:55 67.90761 22.75956 32899 ft 434 kts 135°
2026-04-28 18:55 67.89286 22.79523 32574 ft 432 kts 135°
2026-04-28 18:55 67.86324 22.86552 32171 ft 421 kts 135°
2026-04-28 18:55 67.84149 22.91734 31443 ft 424 kts 135°
2026-04-28 18:56 67.81944 22.96948 30500 ft 435 kts 136°
2026-04-28 18:56 67.79652 23.02159 29709 ft 435 kts 137°
2026-04-28 18:56 67.77312 23.07202 29039 ft 431 kts 138°
2026-04-28 18:56 67.75013 23.12163 28585 ft 423 kts 138°
2026-04-28 18:57 67.72754 23.17030 28214 ft 415 kts 138°
2026-04-28 18:57 67.70512 23.21758 27766 ft 410 kts 139°
2026-04-28 18:57 67.68348 23.26607 27222 ft 408 kts 136°
2026-04-28 18:57 67.66246 23.31596 26688 ft 406 kts 135°
2026-04-28 18:58 67.64172 23.36569 26278 ft 401 kts 135°
2026-04-28 18:58 67.62102 23.41438 25954 ft 396 kts 136°
2026-04-28 18:58 67.60031 23.46119 25629 ft 392 kts 137°
2026-04-28 18:58 67.57967 23.50754 25254 ft 389 kts 137°
2026-04-28 18:59 67.56002 23.55484 25178 ft 377 kts 130°
2026-04-28 18:59 67.54273 23.60566 24869 ft 374 kts 128°
2026-04-28 18:59 67.52555 23.65739 24270 ft 380 kts 128°
2026-04-28 18:59 67.50770 23.70920 23693 ft 384 kts 130°
2026-04-28 19:00 67.48923 23.75904 23411 ft 379 kts 133°
2026-04-28 19:00 67.47050 23.80606 23310 ft 370 kts 134°
2026-04-28 19:00 67.45169 23.85112 23064 ft 366 kts 135°
2026-04-28 19:00 67.43273 23.89488 22448 ft 362 kts 132°
2026-04-28 19:01 67.41425 23.93788 22501 ft 355 kts 132°
2026-04-28 19:01 67.39594 23.98046 22479 ft 351 kts 131°
2026-04-28 19:01 67.37784 24.02228 22554 ft 346 kts 132°
2026-04-28 19:01 67.35966 24.06305 22483 ft 346 kts 133°
2026-04-28 19:02 67.34098 24.10311 22277 ft 351 kts 134°
2026-04-28 19:02 67.32210 24.14217 22115 ft 353 kts 136°
2026-04-28 19:02 67.30270 24.18105 22085 ft 350 kts 135°
2026-04-28 19:02 67.28438 24.22157 22079 ft 345 kts 132°
2026-04-28 19:03 67.26630 24.26233 21998 ft 345 kts 132°
2026-04-28 19:03 67.24787 24.30244 21860 ft 348 kts 134°
2026-04-28 19:03 67.22895 24.34164 21756 ft 349 kts 135°
2026-04-28 19:03 67.20973 24.37988 21715 ft 348 kts 136°
2026-04-28 19:04 67.19655 24.40483 21695 ft 348 kts 138°
2026-04-28 19:04 67.17662 24.44020 21631 ft 349 kts 140°
2026-04-28 19:04 67.15679 24.47481 21493 ft 349 kts 138°
2026-04-28 19:04 67.13790 24.51475 20919 ft 359 kts 131°
2026-04-28 19:05 67.11958 24.55933 20434 ft 366 kts 128°
2026-04-28 19:05 67.10158 24.60557 20297 ft 362 kts 127°
2026-04-28 19:05 67.08405 24.65123 20106 ft 361 kts 127°
2026-04-28 19:05 67.06599 24.69824 19173 ft 380 kts 127°
2026-04-28 19:06 67.04685 24.74718 18352 ft 392 kts 129°
2026-04-28 19:06 67.02791 24.79777 17271 ft 393 kts 126°
2026-04-28 19:06 67.01004 24.84964 16442 ft 382 kts 125°
2026-04-28 19:06 66.99352 24.90095 15844 ft 366 kts 123°
2026-04-28 19:07 66.97824 24.95220 15070 ft 359 kts 122°
2026-04-28 19:07 66.96367 25.00358 14237 ft 356 kts 121°
2026-04-28 19:07 66.94977 25.05494 13517 ft 348 kts 120°
2026-04-28 19:07 66.93652 25.10562 12913 ft 338 kts 119°
2026-04-28 19:08 66.92398 25.15539 12379 ft 330 kts 118°
2026-04-28 19:08 66.91194 25.20444 11732 ft 320 kts 118°
2026-04-28 19:08 66.90015 25.25081 10976 ft 308 kts 122°
2026-04-28 19:08 66.88574 25.29131 10115 ft 306 kts 134°
2026-04-28 19:09 66.86941 25.32454 9352 ft 298 kts 142°
2026-04-28 19:09 66.85186 25.35184 8684 ft 289 kts 149°
2026-04-28 19:09 66.83402 25.37323 8035 ft 282 kts 154°
2026-04-28 19:09 66.81542 25.39069 7166 ft 285 kts 162°
2026-04-28 19:10 66.79612 25.39981 6500 ft 281 kts 173°
2026-04-28 19:10 66.77759 25.40078 6393 ft 256 kts 179°
2026-04-28 19:10 66.76025 25.40040 6125 ft 243 kts 180°
2026-04-28 19:10 66.74395 25.39971 5995 ft 227 kts 181°
2026-04-28 19:11 66.72869 25.39809 5998 ft 214 kts 182°
2026-04-28 19:11 66.71186 25.39649 6123 ft 263 kts 181°
2026-04-28 19:11 66.69356 25.39512 6204 ft 261 kts 181°
2026-04-28 19:11 66.67534 25.39402 6234 ft 263 kts 180°
2026-04-28 19:12 66.65705 25.39360 6199 ft 265 kts 179°
2026-04-28 19:12 66.63827 25.39290 5923 ft 276 kts 180°
2026-04-28 19:12 66.61868 25.39166 5637 ft 285 kts 181°
2026-04-28 19:12 66.59919 25.39014 5550 ft 284 kts 181°
2026-04-28 19:13 66.57922 25.38824 5338 ft 288 kts 182°
2026-04-28 19:13 66.55942 25.38610 5411 ft 281 kts 182°
2026-04-28 19:13 66.53989 25.38457 4961 ft 283 kts 179°
2026-04-28 19:13 66.52015 25.38648 4472 ft 284 kts 175°
2026-04-28 19:14 66.50070 25.39466 3909 ft 285 kts 162°
2026-04-28 19:14 66.48198 25.41139 3368 ft 285 kts 153°
2026-04-28 19:14 66.46575 25.43772 2931 ft 267 kts 135°
2026-04-28 19:14 66.45433 25.47046 2912 ft 236 kts 119°
2026-04-28 19:15 66.44641 25.50418 2751 ft 215 kts 110°
2026-04-28 19:15 66.44156 25.53770 2579 ft 198 kts 95°
2026-04-28 19:15 66.44014 25.57014 2561 ft 179 kts 76°
2026-04-28 19:15 66.44260 25.58944 2510 ft 176 kts 57°
2026-04-28 19:16 66.45252 25.62171 2437 ft 177 kts 36°
2026-04-28 19:16 66.46251 25.64074 2309 ft 184 kts 32°
2026-04-28 19:16 66.47287 25.65958 2300 ft 181 kts 32°
2026-04-28 19:16 66.48310 25.67796 2242 ft 180 kts 32°
2026-04-28 19:17 66.49311 25.69636 2238 ft 177 kts 32°
2026-04-28 19:17 66.50297 25.71499 2149 ft 179 kts 33°
2026-04-28 19:17 66.51275 25.73438 2113 ft 179 kts 35°
2026-04-28 19:17 66.52261 25.75430 1883 ft 186 kts 34°
2026-04-28 19:18 66.53288 25.77414 1701 ft 188 kts 33°
2026-04-28 19:18 66.54345 25.79366 1386 ft 194 kts 33°
2026-04-28 19:18 66.55442 25.81466 1012 ft 202 kts 37°
2026-04-28 19:18 66.56533 25.83592 1004 ft 194 kts 35°
2026-04-28 19:19 66.57606 25.85571 1047 ft 183 kts 32°
2026-04-28 19:19 66.58595 25.85272 2013 ft 157 kts 303°
2026-04-28 19:19 66.58329 25.82350 2040 ft 216 kts 233°
2026-04-28 19:19 66.57044 25.79989 1879 ft 236 kts 215°
2026-04-28 19:20 66.55629 25.77836 1860 ft 241 kts 213°
2026-04-28 19:20 66.54207 25.76059 1607 ft 215 kts 186°
2026-04-28 19:20 66.53682 25.78286 1370 ft 188 kts 39°
2026-04-28 19:20 66.54740 25.79736 880 ft 157 kts 34°
2026-04-28 19:21 66.55538 25.81261 625 ft 135 kts 37°
2026-04-28 19:21 66.56163 25.82426 616 ft 68 kts 38°
2026-04-28 19:21 66.56356 25.82776 623 ft 26 kts 37°
2026-04-28 19:21 66.56498 25.83064 623 ft 27 kts 37°
2026-04-28 19:22 66.56654 25.83350 622 ft 28 kts 21°
2026-04-28 19:22 66.56786 25.83342 624 ft 28 kts 352°
2026-04-28 19:22 66.56987 25.83221 633 ft 9 kts 258°
2026-04-28 19:22 66.56984 25.83181 633 ft 0 kts 260°